Location: Fouquenies
(49.4624°N, 2.0492°E)
Time: 13:03:42
(UTC+00:00)

SL-16 R/B - Pass Details

Date: 03 February 2023
Orbit: 842 x 846 km, 71.0° (Epoch: 23 March)

Event Time Altitude Azimuth Distance (km) Brightness Sun altitude
Rises 18:30:13 0° 215° (SW) 3,388 6.0 -16.4°
Reaches altitude 10° 18:32:40 10° 218° (SW) 2,458 5.2 -16.8°
Maximum altitude 18:38:17 68° 301° (WNW) 908 2.5 -17.7°
Drops below altitude 10° 18:43:58 10° 25° (NNE) 2,476 4.4 -18.6°
Enters shadow 18:44:24 - 26° (NNE) 2,639 4.5 -18.7°
